This is the latest recevied weather packets stored in our database for station/object W0DXV. If no packets are shown the sender has not sent any weather packets the latest 10 day(s).
| Time | Temp. | Humidity | Pressure | Rain* | Wind** | Luminosity | Snow |
|---|---|---|---|---|---|---|---|
| 1777933973 | 23.33° C | 37% | 1009.2 hPa | 0 mm | - | 38 W/m² | - |
| 1777933670 | 23.33° C | 36% | 1009.1 hPa | 0 mm | - | 39 W/m² | - |
| 1777933367 | 23.89° C | 40% | 1009.3 hPa | 0 mm | - | 41 W/m² | - |
| 1777933064 | 23.89° C | 37% | 1009.2 hPa | 0 mm | - | 41 W/m² | - |
| 1777932756 | 23.89° C | 33% | 1009.2 hPa | 0 mm | - | 40 W/m² | - |
| 1777932452 | 24.44° C | 36% | 1009.4 hPa | 0 mm | - | 42 W/m² | - |
| 1777932150 | 23.89° C | 34% | 1009.4 hPa | 0 mm | - | 44 W/m² | - |
| 1777931847 | 24.44° C | 37% | 1009.4 hPa | 0 mm | - | 44 W/m² | - |
| 1777931543 | 24.44° C | 33% | 1009.2 hPa | 0 mm | - | 45 W/m² | - |
| 1777931239 | 24.44° C | 31% | 1009.3 hPa | 0 mm | - | 46 W/m² | - |
| 1777930936 | 24.44° C | 38% | 1009.3 hPa | 0 mm | - | 46 W/m² | - |
| 1777930633 | 24.44° C | 33% | 1009.5 hPa | 0 mm | - | 47 W/m² | - |
| 1777930329 | 24.44° C | 34% | 1009.4 hPa | 0 mm | - | 53 W/m² | - |
| 1777930026 | 25° C | 34% | 1009.3 hPa | 0 mm | - | 55 W/m² | - |
| 1777929723 | 25° C | 33% | 1009.5 hPa | 0 mm | - | 50 W/m² | - |
| 1777929420 | 25° C | 37% | 1009.5 hPa | 0 mm | - | 49 W/m² | - |
| 1777929116 | 25° C | 34% | 1009.4 hPa | 0 mm | - | 50 W/m² | - |
| 1777928814 | 25° C | 33% | 1009.3 hPa | 0 mm | - | 51 W/m² | - |
| 1777928510 | 25° C | 34% | 1009.5 hPa | 0 mm | - | 52 W/m² | - |
| 1777928208 | 25° C | 33% | 1009.4 hPa | 0 mm | - | 53 W/m² | - |
| 1777927905 | 25.56° C | 35% | 1009.5 hPa | 0 mm | - | 55 W/m² | - |
| 1777927603 | 25.56° C | 34% | 1009.6 hPa | 0 mm | - | 171 W/m² | - |
| 1777927302 | 25.56° C | 34% | 1009.8 hPa | 0 mm | - | 294 W/m² | - |
| 1777927000 | 26.11° C | 33% | 1009.7 hPa | 0 mm | - | 460 W/m² | - |
| 1777926697 | 26.67° C | 33% | 1009.7 hPa | 0 mm | - | 473 W/m² | - |
* Rain latest hour (hover to see other rain measurements)
** Current wind speed in m/s (hover to see current wind gust speed)